National Weather Service Raw Text Product

Displaying AFOS PIL: RWRIA Received: 2017-08-13 14:00 UTC


766 
ASUS43 KDMX 131406
RWRIA 

WEATHER ROUNDUP FOR IOWA
NATIONAL WEATHER SERVICE DES MOINES IA
900 AM CDT SUN AUG 13 2017

NOTE: "FAIR" INDICATES FEW OR NO CLOUDS BELOW 12,000 FEET WITH NO
SIGNIFICANT WEATHER AND/OR OBSTRUCTIONS TO VISIBILITY.

* - THESE STATIONS ARE NOT NWS STATIONS...THUS NOT UNDER NWS
QUALITY CONTROL.  THEY ALSO DO NOT REPORT WEATHER SUCH 
AS PRECIPITATION OR FOG.  

IAZ001>003-012>014-020>022-031>034-043>046-131500-
   NORTHWEST IOWA
  
CITY           SKY/WX    TMP DP  RH WIND       PRES   REMARKS
CARROLL *      CLOUDY    64  64 100 SE5       30.02R                  
CHEROKEE *     PTSUNNY   65  60  82 SE6       29.99S                  
DENISON *      LGT RAIN  63  59  88 CALM      30.03R                  
LE MARS *      CLOUDY    64  61  88 SE12G18   29.97S                  
ORANGE CITY *  LGT RAIN  66  61  82 S9        29.97S                  
SHELDON *      PTSUNNY   66  59  77 S10       29.96F                  
SIOUX CITY     LGT RAIN  63  63 100 SE13      29.97R                  
SPENCER        CLOUDY    64  59  83 S8        30.00F                  
STORM LAKE *   CLOUDY    63  59  88 SE7       30.01F                  
$$
 
IAZ055>058-069>071-079>083-090>094-131500-
   SOUTHWEST IOWA
  
CITY           SKY/WX    TMP DP  RH WIND       PRES   REMARKS
ATLANTIC *     CLOUDY    64  59  82 CALM      30.01F                  
AUDUBON *      LGT RAIN  63  59  88 CALM      30.03S                  
CLARINDA *     PTSUNNY   64  63  94 CALM      30.04S                  
COUNCIL BLFS * CLOUDY    63  63 100 SE9       29.99F                  
CRESTON *      MOSUNNY   68  59  73 S6        30.05R                  
HARLAN  *      CLOUDY    63  61  94 CALM      30.04F                  
LAMONI         CLOUDY    63  57  81 SE3       30.04R                  
RED OAK *      PTSUNNY   66  61  82 S5        30.02S                  
SHENANDOAH *   CLOUDY    64  61  88 MISG      30.02S                  
$$
 
IAZ047>049-059>061-072>074-084-131500-
   CENTRAL IOWA
  
CITY           SKY/WX    TMP DP  RH WIND       PRES   REMARKS
AMES           LGT RAIN  61  60  97 SE5       30.04R                  
ANKENY *       MOSUNNY   64  59  82 SE5       30.05S                  
BOONE *        LGT RAIN  61  59  94 VRB3      30.03S                  
CHARITON *     CLOUDY    66  57  72 SE6       30.04S                  
DES MOINES     CLOUDY    66  56  70 S5        30.03S                  
GRINNELL*      LGT RAIN  62  56  82 E5        30.07R                  
KNOXVILLE *    CLOUDY    66  55  68 SE7       30.03S                  
MARSHALLTOWN   CLOUDY    63  55  75 SE8       30.05R                  
NEWTON *       CLOUDY    61  57  88 CALM      30.05S                  
PELLA *        CLOUDY    64  56  74 SE5       30.06S                  
PERRY *        PTSUNNY   63  61  93 E5        30.04R                  
$$
 
IAZ004>006-015-016-023>025-035-036-131500-
   NORTH CENTRAL IOWA
  
CITY           SKY/WX    TMP DP  RH WIND       PRES   REMARKS
ALGONA *       CLOUDY    63  57  82 S8G14     30.03R                  
CLARION *      CLOUDY    61  57  88 S8        30.04R                  
ESTHERVILLE    CLOUDY    61  57  87 S9        30.00S                  
FORT DODGE *   CLOUDY    63  54  72 SE3       30.04S                  
MASON CITY     CLOUDY    62  54  74 SE8       30.05S                  
FOREST CITY *    N/A     63  54  72 SE7       30.03S                  
WEBSTER CITY * CLOUDY    63  55  77 S7        30.02S                  
IOWA FALLS *     N/A     62  55  76 SE7       30.05S                  
$$

IAZ007>011-017>019-026>030-037>042-050>054-066-131500-
   NORTHEAST IOWA
  
CITY           SKY/WX    TMP DP  RH WIND       PRES   REMARKS
CEDAR RAPIDS   CLOUDY    66  60  81 SE6       30.07S                  
CHARLES CITY * PTSUNNY   63  57  82 SE6       30.06S                  
CLINTON *      SUNNY     65  61  87 CALM      30.09S                  
DECORAH *      PTSUNNY   61  55  82 CALM      30.07S                  
DUBUQUE        MOSUNNY   65  55  70 CALM      30.09S                  
MONTICELLO *   PTSUNNY   64  59  82 CALM      30.08S                  
OELWEIN *      CLOUDY    63  61  94 SE6       30.07F                  
WATERLOO       CLOUDY    62  54  74 SE5       30.05S                  
$$
 
IAZ064-065-067-068-078-131500-
   EAST CENTRAL IOWA
  
CITY           SKY/WX    TMP DP  RH WIND       PRES   REMARKS
DAVENPORT      MOSUNNY   66  57  72 SE3       30.10S                  
IOWA CITY      CLOUDY    65  58  78 SE5       30.08S                  
MT. PLEASANT * SUNNY     67  59  74 SE6       30.08S                  
MUSCATINE *    CLOUDY    66  59  77 CALM      30.08S                  
QUAD CITIES    MOSUNNY   66  56  70 E3        30.08S                  
$$
 
IAZ062-063-075>077-085>089-095>099-131500-
   SOUTHEAST IOWA
  
CITY           SKY/WX    TMP DP  RH WIND       PRES   REMARKS
BURLINGTON     SUNNY     67  59  75 SE6       30.08R                  
FAIRFIELD *    SUNNY     70  55  60 SE9       30.06S                  
FORT MADISON * SUNNY     66  61  82 SE7       30.08S                  
KEOKUK *       SUNNY     68  59  73 SE6       30.07S                  
OSKALOOSA *      N/A     66  57  73 SE7       30.06S                  
CENTERVILLE *    N/A     68  57  68 CALM      30.07S                  
OTTUMWA        CLOUDY    70  57  63 SE9       30.05F                  
WASHINGTON *   PTSUNNY   66  61  82 SE6       30.08S                  
$$

ABBREVIATIONS USED IN REMARKS
   TC - TEMPERATURES IN CELSIUS
  WCI - WIND CHILL INDEX
   HX - HEAT INDEX
  VSB - VISIBILITY  
$$

  

233 
ASUS43 KDMX 131401
RWRIA 

WEATHER ROUNDUP FOR IOWA
NATIONAL WEATHER SERVICE DES MOINES IA
900 AM CDT SUN AUG 13 2017

NOTE: "FAIR" INDICATES FEW OR NO CLOUDS BELOW 12,000 FEET WITH NO
SIGNIFICANT WEATHER AND/OR OBSTRUCTIONS TO VISIBILITY.

* - THESE STATIONS ARE NOT NWS STATIONS...THUS NOT UNDER NWS
QUALITY CONTROL.  THEY ALSO DO NOT REPORT WEATHER SUCH 
AS PRECIPITATION OR FOG.  

IAZ001>003-012>014-020>022-031>034-043>046-131500-
   NORTHWEST IOWA
  
CITY           SKY/WX    TMP DP  RH WIND       PRES   REMARKS
CARROLL *      CLOUDY    64  64 100 SE5       30.02R                  
CHEROKEE *     PTSUNNY   65  60  82 SE6       29.99S                  
DENISON *      LGT RAIN  63  59  88 CALM      30.03R                  
LE MARS *      CLOUDY    64  61  88 SE12G18   29.97S                  
ORANGE CITY *  LGT RAIN  66  61  82 S9        29.97S                  
SHELDON *      PTSUNNY   66  59  77 S10       29.96F                  
SIOUX CITY     LGT RAIN  63  63 100 SE13      29.97R                  
SPENCER        CLOUDY    64  59  83 S8        30.00F                  
STORM LAKE *   CLOUDY    63  59  88 SE7       30.01F                  
$$
 
IAZ055>058-069>071-079>083-090>094-131500-
   SOUTHWEST IOWA
  
CITY           SKY/WX    TMP DP  RH WIND       PRES   REMARKS
ATLANTIC *     CLOUDY    64  59  82 CALM      30.01F                  
AUDUBON *      LGT RAIN  63  59  88 CALM      30.03S                  
CLARINDA *     PTSUNNY   64  63  94 CALM      30.04S                  
COUNCIL BLFS * CLOUDY    63  63 100 SE9       29.99F                  
CRESTON *      MOSUNNY   68  59  73 S6        30.05R                  
HARLAN  *      CLOUDY    63  61  94 CALM      30.04F                  
LAMONI         CLOUDY    63  57  81 SE3       30.04R                  
RED OAK *      PTSUNNY   66  61  82 S5        30.02S                  
SHENANDOAH *   CLOUDY    64  61  88 MISG      30.02S                  
$$
 
IAZ047>049-059>061-072>074-084-131500-
   CENTRAL IOWA
  
CITY           SKY/WX    TMP DP  RH WIND       PRES   REMARKS
AMES           LGT RAIN  61  60  97 SE5       30.04R                  
ANKENY *       MOSUNNY   64  59  82 SE5       30.05S                  
BOONE *        LGT RAIN  61  59  94 VRB3      30.03S                  
CHARITON *     CLOUDY    66  57  72 SE6       30.04S                  
DES MOINES     CLOUDY    66  56  70 S5        30.03S                  
GRINNELL*      LGT RAIN  62  56  82 E5        30.07R                  
KNOXVILLE *    CLOUDY    66  55  68 SE7       30.03S                  
MARSHALLTOWN   CLOUDY    63  55  75 SE8       30.05R                  
NEWTON *       CLOUDY    61  57  88 CALM      30.05S                  
PELLA *        CLOUDY    64  56  74 SE5       30.06S                  
PERRY *        PTSUNNY   63  61  93 E5        30.04R                  
$$
 
IAZ004>006-015-016-023>025-035-036-131500-
   NORTH CENTRAL IOWA
  
CITY           SKY/WX    TMP DP  RH WIND       PRES   REMARKS
ALGONA *       CLOUDY    63  57  82 S8G14     30.03R                  
CLARION *      CLOUDY    61  57  88 S8        30.04R                  
ESTHERVILLE    CLOUDY    61  57  87 S9        30.00S                  
FORT DODGE *   CLOUDY    63  54  72 SE3       30.04S                  
MASON CITY     CLOUDY    62  54  74 SE8       30.05S                  
FOREST CITY *    N/A     63  54  72 SE7       30.03S                  
WEBSTER CITY * CLOUDY    63  55  77 S7        30.02S                  
IOWA FALLS *     N/A     62  55  76 SE7       30.05S                  
$$

IAZ007>011-017>019-026>030-037>042-050>054-066-131500-
   NORTHEAST IOWA
  
CITY           SKY/WX    TMP DP  RH WIND       PRES   REMARKS
CEDAR RAPIDS   CLOUDY    66  60  81 SE6       30.07S                  
CHARLES CITY * PTSUNNY   63  57  82 SE6       30.06S                  
CLINTON *      SUNNY     65  61  87 CALM      30.09S                  
DECORAH *      PTSUNNY   61  55  82 CALM      30.07S                  
DUBUQUE        MOSUNNY   65  55  70 CALM      30.09S                  
MONTICELLO *   PTSUNNY   64  59  82 CALM      30.08S                  
OELWEIN *      CLOUDY    63  61  94 SE6       30.07F                  
WATERLOO       CLOUDY    62  54  74 SE5       30.05S                  
$$
 
IAZ064-065-067-068-078-131500-
   EAST CENTRAL IOWA
  
CITY           SKY/WX    TMP DP  RH WIND       PRES   REMARKS
DAVENPORT      MOSUNNY   66  57  72 SE3       30.10S                  
IOWA CITY      CLOUDY    65  58  78 SE5       30.08S                  
MUSCATINE *    CLOUDY    66  59  77 CALM      30.08S                  
QUAD CITIES    MOSUNNY   66  56  70 E3        30.08S                  
$$
 
IAZ062-063-075>077-085>089-095>099-131500-
   SOUTHEAST IOWA
  
CITY           SKY/WX    TMP DP  RH WIND       PRES   REMARKS
BURLINGTON     SUNNY     67  59  75 SE6       30.08R                  
FAIRFIELD *    SUNNY     70  55  60 SE9       30.06S                  
FORT MADISON * SUNNY     66  61  82 SE7       30.08S                  
KEOKUK *       SUNNY     68  59  73 SE6       30.07S                  
OSKALOOSA *      N/A     66  57  73 SE7       30.06S                  
OTTUMWA        CLOUDY    70  57  63 SE9       30.05F                  
WASHINGTON *   PTSUNNY   66  61  82 SE6       30.08S                  
$$

ABBREVIATIONS USED IN REMARKS
   TC - TEMPERATURES IN CELSIUS
  WCI - WIND CHILL INDEX
   HX - HEAT INDEX
  VSB - VISIBILITY  
$$